Regional Weather Roundup
Issued by NWS Charleston, SC

Current Version | Previous Version | Graphics & Text | Print | Product List | Glossary On
Versions: 1 2 3 4 5 6 7 8 9 10 11 12 13 14 15 16 17 18 19 20 21 22 23 24 25 26 27 28 29 30 31 32 33 34 35 36 37 38 39 40 41 42 43 44 45 46 47 48 49 50
000
ASUS42 KCHS 301726
RWRCHS

REGIONAL WEATHER ROUNDUP
NATIONAL WEATHER SERVICE CHARLESTON SC
100 PM EDT MON MAR 30 2015

NOTE: "FAIR" INDICATES FEW OR NO CLOUDS BELOW 12,000 FEET WITH NO
SIGNIFICANT WEATHER AND/OR OBSTRUCTIONS TO VISIBILITY.

NOT ALL STATIONS ARE QUALITY CONTROLLED BY THE NATIONAL
WEATHER SERVICE. USE DATA WITH CAUTION...ESPECIALLY
DEWPOINT OBSERVATIONS.

SCZ027-030-031-034>040-042>050-301800-
...SOUTHEAST SOUTH CAROLINA...

CITY           SKY/WX    TMP DP  RH WIND       PRES   REMARKS
N CHARLESTON   PTSUNNY   61  42  49 SW14G30   30.14F
WATERFRONT PRK   N/A     63 N/A N/A SW13G23     N/A
MOUNT PLEASANT LGT RAIN  63  45  51 SW18G25   30.13F
PINOPOLIS        N/A     57  45  62 SW12G23   30.04F
MONCKS CORNER  LGT RAIN  57  46  67 SW6       30.12R
SUMMERVILLE    DRIZZLE   57  48  72 SW8G17    30.12F
BEAUFORT MCAS  PTSUNNY   61  46  57 SW16G24   30.18F
BEAUFORT ARPT  PTSUNNY   61  48  63 SW10G17   30.14F
HILTON HEAD IS PTSUNNY   61  46  59 W15G21    30.21F
WALTERBORO     CLOUDY    55  48  76 SW9G16    30.13F
ALLENDALE      FAIR      57  50  77 VRB6G15   30.13F

...SOUTHERN MIDLANDS AND PEE DEE...

CITY           SKY/WX    TMP DP  RH WIND       PRES   REMARKS
GEORGETOWN     NOT AVBL
KINGSTREE      NOT AVBL
ORANGEBURG     CLOUDY    57  45  64 W14G20    30.12F
BARNWELL       FAIR      61  54  77 SW10      30.14F
AIKEN          CLOUDY    59  48  67 W16       30.15F
MANNING        HVY RAIN  55  41  58 SW9       30.12F
COLUMBIA       CLOUDY    60  48  64 W13G21    30.10F
SUMTER         PTSUNNY   59  48  67 W15       30.07F
FLORENCE       CLOUDY    55  42  61 W10       30.09F
MYRTLE BEACH   DRIZZLE   61  39  44 MISG      30.13F
N MYRTLE BEACH CLOUDY    61  40  45 W17G25    30.10F

$$

GAZ063-065-086>088-099>101-113>116-118-119-134>141-150-301800-
...SOUTHEAST GEORGIA...

CITY           SKY/WX    TMP DP  RH WIND       PRES   REMARKS
SAVANNAH ARPT  CLOUDY    60  43  53 SW15      30.20F
HUNTER AAF     PTSUNNY   65  46  51 SW10G21   30.18F
FORT STEWART   LGT RAIN  61  45  55 SW8       30.19F
STATESBORO     CLOUDY    55  50  83 SW9G16    30.17R
SYLVANIA       CLOUDY    54  51  89 SW8       30.17R
CLAXTON        LGT RAIN  54  50  87 SW7       30.19F

...CSRA...CENTRAL AND FAR SOUTHEAST GEORGIA...

CITY           SKY/WX    TMP DP  RH WIND       PRES   REMARKS
THOMSON        CLOUDY    63  58  83 W8        30.18S
AUGUSTA-BUSH   CLOUDY    60  53  77 SW8       30.14F
AUGUSTA-DANIEL CLOUDY    60  52  74 VRB7      30.14F
SWAINSBORO     FAIR      59  50  72 SW8       30.18F
VIDALIA        CLOUDY    54  52  94 SW8       30.18F
EASTMAN        FAIR      59  59 100 SW6       30.21F
HAZLEHURST     FAIR      55  54  94 S9        30.17F
ALMA           CLOUDY    59  45  59 N8G16     30.27S
WAYCROSS       CLOUDY    69  55  60 N10       30.25R
JESUP          RAIN      63  52  67 CALM      30.25F
BAXLEY         LGT RAIN  55  52  88 S9        30.21F
BRUNSWICK      CLOUDY    70  50  49 W13G22    30.25R
SAINT SIMONS   MOSUNNY   69  47  45 SW13      30.22F

$$

SCZ027-028-034-036>038-045-046-048>050-GAZ119-141-301800-
...LAKE AND SUPPLEMENTAL COASTAL OBSERVATIONS...

STATION/POSITION TIME  TEMP    WIND        PRES    WAVE   SWELL
                       AIR SEA DIR/SP/G            HT/PER HT/PER/DIR
                 (UTC) (F)     (DEG/KT/KT) (MB)    (FT/S) (FT/S/D)
UPR LAKE MARION  NOT AVBL
WINYAH BAY       1645   61     220/ 15     1018.0F
LAKE MURRAY      1600   52     250/ 10/ 14 1019.3F
ACE BASIN NERRS  NOT AVBL
FORT PULASKI     1600   60 60  260/ 12/ 17 1024.6R
SAPELO ISLAND    1700   67     310/ 11     1024.0S

$$

ANZ835-935-AMZ111-154-330-350-352-354-370-450-454-472-301800-
...C-MAN AND BUOY OBSERVATIONS...

STATION/POSITION TIME  TEMP    WIND        PRES    WAVE   SWELL
                       AIR SEA DIR/SP/G            HT/PER HT/PER/DIR
                 (UTC) (F)     (DEG/KT/KT) (MB)    (FT/S) (FT/S/D)
BUOY 41004       1650   64 68  240/ 25/ 31 1021.0F   6/ 6   2/ 9
BUOY 41008       1650   61 60  220/ 16/ 19 1023.4F   3/ 4   2/ 90/ 9
FOLLY BEACH CMAN 1700   61     220/ 17/ 22 1020.8F
CAPERS NEARSHORE NOT AVBL
FRIPP NEARSHORE  1600   59     250/ 17/ 21 1022.8R


STATION/POSITION TIME  TEMP    WIND        PRES    WAVE   SWELL
                       AIR SEA DIR/SP/G            HT/PER HT/PER/DIR
                 (UTC) (F)     (DEG/KT/KT) (MB)    (FT/S) (FT/S/D)
5E ST. MARYS GA  1621      60                N/A     2/ 8
FRYING PAN BUOY  1650   62 64  230/ 23/ 29 1019.9F   6/ 6
BUOY 41025       NOT AVBL
CAPE LOOKOUT NC  1700   57     240/ 13/ 16 1018.4F
BUOY 41002       1650   58 68  250/ 14/ 17 1024.2F   5/10   5/ 30/10
BUOY 41010       1620   67 76  180/  2/  6 1025.8F
ST AUGUSTINE FL  1700   70 62  250/  7/  9 1025.4F


$$


USA.gov is the U.S. government's official web portal to all federal, state and local government web resources and services.